Regional Weather Roundup
Issued by NWS

Home | Current Version | Previous Version | Graphics & Text | Print | Product List | Glossary On
Versions: 1 2 3 4 5 6 7 8 9 10 11 12 13 14 15 16 17 18 19 20 21 22 23 24 25 26 27 28 29 30 31 32 33 34 35 36 37 38 39 40 41 42 43 44 45 46 47 48 49 50
000
ASUS44 KMEG 092310
RWRTN
TENNESSEE HOURLY STATE WEATHER ROUNDUP
NATIONAL WEATHER SERVICE MEMPHIS TN
600 PM CDT WED JUL 09 2014

TNZ002-004-019-021-049-052-054-088>092-100000-
WEST TENNESSEE

CITY           SKY/WX    TMP DP  RH WIND       PRES   REMARKS
MEMPHIS INTL   PTSUNNY   84  71  65 SW5       29.99F
NWS MEMPHIS      N/A     83 N/A N/A MISG        N/A
JACKSON        MOSUNNY   83  67  58 W6        29.98F
DYERSBURG      SUNNY     84  59  42 NW3       29.98S
UNION CITY     SUNNY     82  61  47 NW8       29.97S
PARIS          MOSUNNY   81  63  54 VRB7      29.99S
LEXINGTON      SUNNY     82  72  69 W7        29.98S
SAVANNAH       MOSUNNY   80  72  76 NW3       29.99F
$$

TNZ008-025-027-028-033-062-065-066-100000-
NORTH MIDDLE TENNESSEE

CITY           SKY/WX    TMP DP  RH WIND       PRES   REMARKS
NASHVILLE      PTSUNNY   87  65  47 NW7       29.97S
DICKSON        MOSUNNY   82  70  65 NW6       29.99R
PORTLAND       PTSUNNY   82  63  51 N6        29.97R
CLARKSVILLE    SUNNY     85  58  39 W9        29.97R
LEBANON        PTSUNNY   85  70  60 S8        29.95S
SMYRNA         MOSUNNY   89  66  46 W6        29.97S HX  91
COOKEVILLE     SUNNY     82  73  74 CALM      29.99F
LIVINGSTON     PTSUNNY   78  69  73 SW5       30.00R
GALLATIN       MOSUNNY   87  64  46 NW8       29.96S
CROSSVILLE     MOSUNNY   76  69  79 W3        30.04S
$$

TNZ061-075-076-078-094-096-097-100000-
SOUTH MIDDLE TENNESSEE

CITY           SKY/WX    TMP DP  RH WIND       PRES   REMARKS
LEWISBURG      MOSUNNY   81  71  71 CALM      29.98F
TULLAHOMA      MOSUNNY   73  70  88 CALM      30.03S
WINCHESTER     PTSUNNY   73  70  88 CALM      30.02F
MCMINNVILLE    MOSUNNY   79  72  78 SW7       30.00F
COLUMBIA       PTSUNNY   81  72  74 SW5       29.98S
$$

TNZ017-018-042-046-047-100000-
NORTHEAST TENNESSEE

CITY           SKY/WX    TMP DP  RH WIND       PRES   REMARKS
TRI CITIES     PTSUNNY   80  64  58 SW10      30.01R
ELIZABETHTON   CLEAR     79  64  61 W6        30.01S
$$

TNZ012-013-036-069-073-074-100000-
CENTRAL EAST TENNESSEE

CITY           SKY/WX    TMP DP  RH WIND       PRES   REMARKS
KNOXVILLE      CLOUDY    68  64  88 SE6       30.00S
OAK RIDGE      CLOUDY    72  69  90 VRB3      30.00F
$$

TNZ083-085-099-100000-
SOUTHEAST TENNESSEE

CITY           SKY/WX    TMP DP  RH WIND       PRES   REMARKS
CHATTANOOGA    TSTM      73  68  84 W14       30.01R
$$

SKY/WX REPORTED AS FAIR MEANS FEW OR NO CLOUDS BELOW
12 THOUSAND FEET.



USA.gov is the U.S. government's official web portal to all federal, state and local government web resources and services.